Location: Saint Louis
(38.6272°N, 90.1978°W)
Time: 02:58:06
(UTC-05:00)

ISS - Pass Details

Date: 30 May 2013
Orbit: 402 x 403 km, 51.6° (Epoch: 28 June)

Event Time Altitude Azimuth Distance (km) Brightness Sun altitude
Rises 04:43:42 0° 317° (NW) 2,388 0.5 -9.8°
Reaches altitude 10° 04:46:24 10° 340° (NNW) 1,511 -0.2 -9.4°
Maximum altitude 04:48:38 16° 21° (NNE) 1,176 -0.1 -9.0°
Drops below altitude 10° 04:50:51 10° 62° (ENE) 1,493 1.2 -8.7°
Sets 04:53:30 0° 85° (E) 2,344 1.7 -8.3°
